Regional Weather Roundup
Issued by NWS Charleston, SC

Current Version | Previous Version | Graphics & Text | Print | Product List | Glossary On
Versions: 1 2 3 4 5 6 7 8 9 10 11 12 13 14 15 16 17 18 19 20 21 22 23 24 25 26 27 28 29 30 31 32 33 34 35 36 37 38 39 40 41 42 43 44 45 46 47 48 49 50
000 ASUS42 KCHS 230128 RWRCHS REGIONAL WEATHER ROUNDUP NATIONAL WEATHER SERVICE CHARLESTON SC 900 PM EDT FRI JUL 22 2016 NOTE: "FAIR" INDICATES FEW OR NO CLOUDS BELOW 12,000 FEET WITH NO SIGNIFICANT WEATHER AND/OR OBSTRUCTIONS TO VISIBILITY. NOT ALL STATIONS ARE QUALITY CONTROLLED. USE DATA WITH CAUTION... ESPECIALLY DEWPOINT OBSERVATIONS. SCZ027-030-031-034>040-042>050-230200- ...SOUTHEAST SOUTH CAROLINA... CITY SKY/WX TMP DP RH WIND PRES REMARKS N CHARLESTON PTCLDY 81 73 76 SW6 30.03R WATERFRONT PRK N/A 85 76 74 S5 30.01R HX 95 MOUNT PLEASANT FAIR 79 73 83 CALM 30.04R JOHNS ISLAND FAIR 82 75 78 CALM 30.04R PINOPOLIS N/A 84 75 74 CALM 29.95R HX 92 MONCKS CORNER FAIR 79 73 83 S5 30.03R SUMMERVILLE FAIR 81 75 83 CALM 30.04R BEAUFORT MCAS CLEAR 84 75 74 CALM 30.03R HX 92 BEAUFORT ARPT FAIR 82 73 74 CALM 30.04R HILTON HEAD IS CLEAR 84 75 74 S5 30.05R HX 92 WALTERBORO CLEAR 82 73 74 SE5 30.04S ALLENDALE FAIR 82 73 74 CALM 30.02R ...SOUTHERN MIDLANDS AND PEE DEE... CITY SKY/WX TMP DP RH WIND PRES REMARKS GEORGETOWN FAIR 77 72 83 CALM 30.04S KINGSTREE FAIR 81 73 78 SE5 30.02R ORANGEBURG CLOUDY 83 76 79 S3 30.02R HX 91 BARNWELL NOT AVBL AIKEN FAIR 81 72 74 SE3 30.06S MANNING FAIR 81 75 83 S3 30.02R COLUMBIA PTCLDY 88 72 58 S5 30.00R HX 94 SUMTER MOCLDY 84 73 70 S5 29.99R HX 91 FLORENCE CLOUDY 85 74 69 S6 30.01R HX 92 MYRTLE BEACH CLEAR 84 66 54 S9 30.04R N MYRTLE BEACH CLEAR 84 71 65 S8 30.02R $$ GAZ063-065-086>088-099>101-113>116-118-119-134>141-150-230200- ...SOUTHEAST GEORGIA... CITY SKY/WX TMP DP RH WIND PRES REMARKS SAVANNAH ARPT PTCLDY 84 72 67 S5 30.04R HUNTER AAF CLEAR 83 77 81 S2 30.01R HX 93 FORT STEWART CLOUDY 84 72 67 S1 30.01R HX 90 STATESBORO CLEAR 82 79 89 CALM 30.03R HX 93 SYLVANIA NOT AVBL CLAXTON FAIR 82 78 87 CALM 30.03R HX 91 ...CSRA...CENTRAL AND FAR SOUTHEAST GEORGIA... CITY SKY/WX TMP DP RH WIND PRES REMARKS THOMSON PTCLDY 86 75 71 CALM 30.06S HX 94 AUGUSTA-BUSH PTCLDY 87 72 60 SW7 30.00R HX 93 AUGUSTA-DANIEL PTCLDY 89 68 49 S5 30.03R HX 93 SWAINSBORO FAIR 82 73 74 CALM 30.04R VIDALIA MOCLDY 82 73 74 CALM 30.03S EASTMAN FAIR 82 67 61 CALM 30.05S HAZLEHURST FAIR 88 73 61 CALM 30.02R HX 96 ALMA TSTM 80 73 79 E10G17 30.05R WAYCROSS PTCLDY 87 76 71 S7 30.03R HX 98 JESUP FAIR 81 77 89 CALM 30.04R BAXLEY HVY RAIN 86 77 74 SW7G18 30.05R HX 97 BRUNSWICK CLEAR 86 77 74 SE6 30.05R HX 97 SAINT SIMONS CLEAR 85 75 72 SE8 30.04 HX 93 $$ SCZ027-028-034-036>038-045-046-048>050-GAZ119-141-230200- ...LAKE AND SUPPLEMENTAL COASTAL OBSERVATIONS... STATION/POSITION TIME TEMP WIND PRES WAVE SWELL AIR SEA DIR/SP/G HT/PER HT/PER/DIR (UTC) (F) (DEG/KT/KT) (MB) (FT/S) (FT/S/D) WINYAH BAY 0045 83 210/ 5 1016.0S LAKE MURRAY 0100 89 220/ 5/ 7 1015.2S ACE BASIN NERRS 0000 85 CALM 1016.0S FORT PULASKI 0100 84 88 N/A SAPELO ISLAND 0100 85 150/ 6 1017.0S $$ ANZ835-935-AMZ111-154-330-350-352-354-370-450-454-472-230200- ...C-MAN AND BUOY OBSERVATIONS... STATION/POSITION TIME TEMP WIND PRES WAVE SWELL AIR SEA DIR/SP/G HT/PER HT/PER/DIR (UTC) (F) (DEG/KT/KT) (MB) (FT/S) (FT/S/D) BUOY 41004 0050 85 88 160/ 8/ 10 1016.5R 2/ 9 2/120/ 9 BUOY 41008 0050 85 87 140/ 12/ 14 1016.8R 2/ 8 2/100/ 8 FOLLY BEACH CMAN 0100 85 180/ 7/ 8 1017.2R CAPERS NEARSHORE 0108 85 86 190/ 8/ 10 1016.8R FRIPP NEARSHORE 0108 85 87 170/ 10/ 12 1016.5R STATION/POSITION TIME TEMP WIND PRES WAVE SWELL AIR SEA DIR/SP/G HT/PER HT/PER/DIR (UTC) (F) (DEG/KT/KT) (MB) (FT/S) (FT/S/D) 5E ST. MARYS GA 0101 87 N/A 3/ 9 FRYING PAN BUOY 0100 84 88 180/ 6/ 8 1016.8R BUOY 41025 0050 83 86 190/ 12/ 14 1015.9F 2/ 9 2/ 90/ 9 CAPE LOOKOUT NC 0100 82 200/ 7/ 9 1016.3R BUOY 41002 0050 82 86 100/ 4/ 6 1016.8F 3/ 8 3/100/ 8 BUOY 41010 0020 85 87 70/ 4/ 6 1016.9F ST AUGUSTINE FL 0100 84 88 150/ 11/ 12 1018.5R $$

USA.gov is the U.S. government's official web portal to all federal, state and local government web resources and services.